TimeCDT,TemperatureF,Dew PointF,Humidity,Sea Level PressureIn,VisibilityMPH,Wind Direction,Wind SpeedMPH,Gust SpeedMPH,PrecipitationIn,Events,Conditions,WindDirDegrees,DateUTC
12:01 AM,57.2,44.6,63,29.32,10.0,SSE,6.9,-,N/A,,Clear,160,2012-10-17 05:01:00
12:21 AM,57.2,46.4,67,29.30,10.0,SSE,10.4,-,N/A,,Clear,150,2012-10-17 05:21:00
12:41 AM,57.2,46.4,67,29.29,10.0,SSE,11.5,-,N/A,,Clear,160,2012-10-17 05:41:00
1:01 AM,55.4,46.4,72,29.30,10.0,South,8.1,-,N/A,,Clear,170,2012-10-17 06:01:00
1:21 AM,55.4,44.6,67,29.30,10.0,South,8.1,-,N/A,,Clear,170,2012-10-17 06:21:00
1:41 AM,55.4,46.4,72,29.29,10.0,South,6.9,-,N/A,,Clear,170,2012-10-17 06:41:00
2:01 AM,55.4,46.4,72,29.29,10.0,South,8.1,-,N/A,,Scattered Clouds,170,2012-10-17 07:01:00
2:41 AM,55.4,46.4,72,29.26,10.0,SSE,9.2,-,N/A,,Overcast,160,2012-10-17 07:41:00
3:01 AM,53.6,46.4,77,29.26,10.0,SSE,8.1,-,N/A,,Overcast,150,2012-10-17 08:01:00
3:34 AM,53.6,46.4,77,29.21,10.0,East,8.1,-,N/A,,Overcast,100,2012-10-17 08:34:00
3:49 AM,53.6,48.2,82,29.21,10.0,East,5.8,-,N/A,,Overcast,100,2012-10-17 08:49:00
4:01 AM,53.6,48.2,82,29.20,10.0,ESE,6.9,-,N/A,,Overcast,110,2012-10-17 09:01:00
4:21 AM,53.6,48.2,82,29.19,10.0,East,6.9,-,N/A,,Overcast,100,2012-10-17 09:21:00
5:01 AM,53.6,48.2,82,29.17,10.0,East,5.8,-,N/A,,Overcast,100,2012-10-17 10:01:00
5:21 AM,53.6,50.0,88,29.18,10.0,ESE,3.5,-,N/A,,Overcast,110,2012-10-17 10:21:00
5:41 AM,51.8,50.0,94,29.15,10.0,ENE,4.6,-,N/A,,Overcast,70,2012-10-17 10:41:00
6:01 AM,51.8,50.0,94,29.13,10.0,East,6.9,-,N/A,,Overcast,90,2012-10-17 11:01:00
6:41 AM,53.6,50.0,88,29.11,10.0,East,6.9,-,N/A,,Overcast,80,2012-10-17 11:41:00
7:01 AM,53.6,50.0,88,29.10,10.0,East,5.8,-,N/A,,Overcast,80,2012-10-17 12:01:00
7:41 AM,51.8,50.0,94,29.13,10.0,North,12.7,-,N/A,,Overcast,350,2012-10-17 12:41:00
8:01 AM,51.8,50.0,94,29.13,10.0,North,10.4,-,N/A,,Overcast,10,2012-10-17 13:01:00
8:21 AM,51.8,50.0,94,29.13,10.0,NNE,15.0,19.6,N/A,,Overcast,30,2012-10-17 13:21:00
9:21 AM,53.6,51.8,94,29.14,3.0,NW,18.4,-,N/A,,Overcast,310,2012-10-17 14:21:00
11:21 AM,51.8,48.2,88,29.19,10.0,WNW,19.6,28.8,N/A,,Overcast,300,2012-10-17 16:21:00
12:21 PM,51.8,44.6,76,29.22,10.0,WNW,17.3,27.6,N/A,,Overcast,290,2012-10-17 17:21:00
12:41 PM,51.8,44.6,76,29.23,10.0,WNW,19.6,25.3,N/A,,Overcast,300,2012-10-17 17:41:00
1:01 PM,51.8,46.4,82,29.22,10.0,WNW,19.6,24.2,N/A,,Mostly Cloudy,300,2012-10-17 18:01:00
1:21 PM,53.6,46.4,77,29.22,10.0,WNW,19.6,-,N/A,,Mostly Cloudy,290,2012-10-17 18:21:00
1:41 PM,53.6,46.4,77,29.21,10.0,WNW,17.3,21.9,N/A,,Overcast,300,2012-10-17 18:41:00
2:01 PM,53.6,46.4,77,29.20,10.0,WNW,17.3,23.0,N/A,,Overcast,300,2012-10-17 19:01:00
2:21 PM,53.6,46.4,77,29.21,10.0,West,18.4,23.0,N/A,,Overcast,280,2012-10-17 19:21:00
2:41 PM,53.6,46.4,77,29.21,10.0,WNW,15.0,23.0,N/A,,Overcast,290,2012-10-17 19:41:00
3:01 PM,53.6,46.4,77,29.22,10.0,WNW,15.0,21.9,N/A,,Overcast,300,2012-10-17 20:01:00
3:21 PM,51.8,46.4,82,29.23,10.0,WNW,23.0,-,N/A,,Overcast,300,2012-10-17 20:21:00
3:41 PM,51.8,44.6,76,29.24,10.0,WNW,21.9,29.9,N/A,,Overcast,300,2012-10-17 20:41:00
4:01 PM,48.2,44.6,87,29.25,10.0,WNW,24.2,28.8,N/A,,Overcast,300,2012-10-17 21:01:00
4:21 PM,48.2,42.8,82,29.25,10.0,WNW,20.7,27.6,N/A,,Overcast,300,2012-10-17 21:21:00
4:41 PM,48.2,42.8,82,29.26,10.0,NW,18.4,31.1,N/A,,Overcast,310,2012-10-17 21:41:00
5:01 PM,48.2,41.0,76,29.26,10.0,NW,21.9,32.2,N/A,,Overcast,310,2012-10-17 22:01:00
5:41 PM,48.2,41.0,76,29.27,10.0,NW,20.7,27.6,N/A,,Overcast,310,2012-10-17 22:41:00
6:01 PM,46.4,39.2,76,29.28,10.0,NW,17.3,23.0,N/A,,Overcast,310,2012-10-17 23:01:00
6:21 PM,46.4,39.2,76,29.29,10.0,NW,16.1,23.0,N/A,,Overcast,310,2012-10-17 23:21:00
6:41 PM,46.4,39.2,76,29.29,10.0,NW,18.4,24.2,N/A,,Overcast,310,2012-10-17 23:41:00
7:01 PM,46.4,41.0,81,29.30,10.0,NW,13.8,-,N/A,,Overcast,310,2012-10-18 00:01:00
7:21 PM,44.6,41.0,87,29.31,10.0,NW,17.3,-,N/A,,Overcast,310,2012-10-18 00:21:00
7:41 PM,44.6,41.0,87,29.31,10.0,NW,18.4,-,N/A,,Overcast,320,2012-10-18 00:41:00
8:01 PM,44.6,42.8,93,29.32,7.0,NW,13.8,-,N/A,,Overcast,310,2012-10-18 01:01:00
8:21 PM,44.6,42.8,93,29.32,10.0,NW,15.0,19.6,N/A,,Overcast,310,2012-10-18 01:21:00
9:01 PM,42.8,42.8,100,29.31,5.0,WNW,12.7,-,N/A,,Overcast,300,2012-10-18 02:01:00
9:21 PM,42.8,42.8,100,29.31,4.0,NW,11.5,-,N/A,,Overcast,310,2012-10-18 02:21:00
9:41 PM,42.8,42.8,100,29.31,5.0,NW,16.1,20.7,N/A,,Overcast,310,2012-10-18 02:41:00
10:01 PM,42.8,42.8,100,29.31,5.0,NW,16.1,19.6,N/A,,Overcast,310,2012-10-18 03:01:00
10:21 PM,42.8,41.0,93,29.30,7.0,NW,19.6,25.3,N/A,,Overcast,310,2012-10-18 03:21:00
10:41 PM,42.8,41.0,93,29.29,7.0,NW,17.3,25.3,N/A,,Overcast,310,2012-10-18 03:41:00
11:01 PM,42.8,39.2,87,29.29,10.0,NW,16.1,23.0,N/A,,Overcast,310,2012-10-18 04:01:00
11:21 PM,42.8,39.2,87,29.28,10.0,NW,19.6,-,N/A,,Overcast,310,2012-10-18 04:21:00
11:41 PM,42.8,39.2,87,29.27,10.0,NW,15.0,24.2,N/A,,Overcast,310,2012-10-18 04:41:00